Weather History for Gwinn, MI

Change the Weather History Date:

Saturday, February 23, 2013

  Actual Average (KESC) Record (KESC)
Temperature  
Mean Temperature 21 °F -  
Max Temperature 29 °F 31 °F 52 °F (1958)
Min Temperature 14 °F 12 °F -9 °F (2008)
Degree Days  
Heating Degree Days 44    
Moisture  
Dew Point 20 °F    
Average Humidity 91    
Maximum Humidity 95    
Minimum Humidity 80    
Precipitation  
Precipitation 0.00 in - - ()
Sea Level Pressure  
Sea Level Pressure 29.72 in    
Wind  
Wind Speed 2 mph (NW)    
Max Wind Speed 10 mph    
Max Gust Speed -    
Visibility 5 miles    
Events Snow    
Averages and records for this station are not official NWS values.
T = Trace of Precipitation, MM = Missing Value Source: NWS Daily Summary

Daily Weather History Graph

Daily Weather History Graph

Search for Another Location

Airport:

Trip Planner

Search our weather history database for the weather conditions in past years. The results will help you decide how hot, cold, wet, or windy it might be!

Date:

Astronomy

Feb. 23, 2013 Rise Set
Actual Time 7:39 AM EST 6:27 PM EST
Civil Twilight 7:08 AM EST 6:57 PM EST
Nautical Twilight 6:33 AM EST 7:32 PM EST
Astronomical Twilight 5:58 AM EST 8:07 PM EST
Moon 4:34 PM EST (2/23) 6:05 AM EST (2/23)
Length of Visible Light 11h 49m
Length of Day
10h 48m
Waxing Gibbous, 95% of the Moon is Illuminated
Feb 23
Waxing Gibbous
Feb 25
Full
Mar 4
Last Quarter
Mar 11
New
Mar 19
First Quarter

Hourly Weather History & Observations

Time (EST) Temp. Windchill Dew Point Humidity Pressure Visibility Wind Dir Wind Speed Gust Speed Precip Events Conditions
12:17 AM 20.8 °F 16.0 °F 19.2 °F 93% 29.75 in 5.0 mi North 3.5 mph - N/A Snow Light Snow
12:37 AM 21.2 °F - 19.4 °F 93% 29.74 in 2.5 mi Calm Calm - N/A Snow Light Snow
12:56 AM 21.0 °F - 19.2 °F 93% 29.74 in 3.0 mi Calm Calm - N/A Snow Light Snow
1:17 AM 21.0 °F - 19.4 °F 93% 29.73 in 3.0 mi Calm Calm - N/A Snow Light Snow
1:37 AM 20.7 °F - 19.0 °F 93% 29.72 in 5.0 mi Calm Calm - N/A Snow Light Snow
1:56 AM 19.9 °F - 18.3 °F 93% 29.72 in 7.0 mi Calm Calm - N/A   Overcast
2:17 AM 19.9 °F 14.9 °F 18.3 °F 93% 29.71 in 5.0 mi NNW 3.5 mph - N/A   Overcast
2:37 AM 19.9 °F - 18.5 °F 94% 29.71 in 7.0 mi Calm Calm - N/A   Overcast
2:56 AM 19.4 °F - 18.1 °F 95% 29.71 in 7.0 mi Calm Calm - N/A   Overcast
3:17 AM 19.4 °F - 17.8 °F 93% 29.70 in 7.0 mi Calm Calm - N/A   Overcast
3:37 AM 19.2 °F - 18.0 °F 95% 29.70 in 5.0 mi Calm Calm - N/A   Overcast
3:56 AM 19.0 °F - 17.6 °F 94% 29.70 in 5.0 mi Calm Calm - N/A Snow Light Snow
4:17 AM 19.2 °F - 17.6 °F 93% 29.70 in 2.5 mi Calm Calm - N/A Snow Light Snow
4:36 AM 19.4 °F - 18.0 °F 94% 29.70 in 2.5 mi Calm Calm - N/A Snow Light Snow
4:57 AM 19.2 °F - 17.6 °F 93% 29.69 in 1.8 mi Calm Calm - N/A Snow Light Snow
5:17 AM 19.2 °F - 17.6 °F 93% 29.69 in 2.5 mi Calm Calm - N/A Snow Light Snow
5:36 AM 19.0 °F - 17.4 °F 93% 29.69 in 5.0 mi Calm Calm - N/A Snow Light Snow
5:57 AM 17.8 °F - 16.3 °F 94% 29.69 in 5.0 mi Calm Calm - N/A Snow Light Snow
6:50 AM 15.8 °F - 14.0 °F 93% 29.68 in 5.0 mi Calm Calm - N/A Snow Light Snow
7:50 AM 14.0 °F - 12.2 °F 93% 29.69 in 10.0 mi Calm Calm - N/A   Scattered Clouds
8:50 AM 15.8 °F - 14.0 °F 93% 29.69 in 10.0 mi Calm Calm - N/A   Mostly Cloudy
9:30 AM 15.8 °F - 14.0 °F 93% 29.69 in 4.0 mi Calm Calm - N/A Snow Light Snow
9:50 AM 17.6 °F - 15.8 °F 93% 29.69 in 3.0 mi Calm Calm - N/A Snow Light Snow
10:30 AM 21.2 °F - 19.4 °F 93% 29.69 in 7.0 mi Calm Calm - N/A Snow Light Snow
11:25 AM 24.8 °F - 23.0 °F 93% 29.69 in 5.0 mi Calm Calm - N/A Snow Light Snow
11:45 AM 24.8 °F - 23.0 °F 93% 29.68 in 5.0 mi Calm Calm - N/A   Mostly Cloudy
12:50 PM 28.4 °F 24.6 °F 23.0 °F 80% 29.69 in 10.0 mi South 3.5 mph - N/A   Overcast
1:50 PM 28.4 °F 22.2 °F 23.0 °F 80% 29.69 in 10.0 mi SSW 5.8 mph - N/A   Overcast
2:50 PM 28.4 °F 24.6 °F 23.0 °F 80% 29.69 in 7.0 mi SSW 3.5 mph - N/A Snow Light Snow
3:45 PM 26.6 °F 21.2 °F 24.8 °F 93% 29.70 in 4.0 mi WSW 4.6 mph - N/A Snow Light Snow
4:50 PM 28.4 °F 24.6 °F 24.8 °F 86% 29.71 in 4.0 mi WSW 3.5 mph - N/A Snow Light Snow
5:01 PM 28.4 °F 24.6 °F 24.8 °F 86% 29.71 in 2.0 mi WSW 3.5 mph - N/A Snow Light Snow
5:55 PM 28.4 °F 21.2 °F 26.6 °F 93% 29.72 in 4.0 mi NNE 6.9 mph - N/A Snow Light Snow
6:55 PM 28.4 °F 19.7 °F 26.6 °F 93% 29.75 in 2.0 mi NNW 9.2 mph - N/A Snow Light Snow
7:50 PM 28.4 °F 20.4 °F 24.8 °F 86% 29.75 in 10.0 mi NNW 8.1 mph - N/A Snow Light Snow
8:50 PM 28.4 °F 22.2 °F 24.8 °F 86% 29.77 in 7.0 mi North 5.8 mph - N/A Snow Light Snow
9:50 PM 26.6 °F 16.8 °F 24.8 °F 93% 29.78 in 10.0 mi NNW 10.4 mph - N/A Snow Light Snow
10:16 PM 27.1 °F 17.5 °F 24.6 °F 90% 29.78 in 7.0 mi NNW 10.4 mph - N/A Snow Light Snow
10:37 PM 27.0 °F 17.3 °F 24.6 °F 91% 29.78 in 1.8 mi NNW 10.4 mph - N/A Snow Light Snow
10:57 PM 27.0 °F 19.5 °F 24.8 °F 92% 29.79 in 1.2 mi North 6.9 mph - N/A Snow Light Snow
11:16 PM 27.0 °F 19.5 °F 24.6 °F 91% 29.79 in 3.0 mi NNW 6.9 mph - N/A Snow Light Snow
11:37 PM 26.6 °F 19.1 °F 24.4 °F 92% 29.79 in 3.0 mi North 6.9 mph - N/A Snow Light Snow
11:56 PM 26.6 °F 19.1 °F 24.6 °F 92% 29.79 in 1.2 mi NNW 6.9 mph - N/A Snow Snow